Weather Roundup
Issued by NWS Corpus Christi, TX

Home | Current Version | Previous Version | Text Only | Print | Product List | Glossary On
Versions: 1 2 3 4 5 6 7 8 9 10 11 12 13 14 15 16 17 18 19 20 21 22 23 24 25 26 27 28 29 30 31 32 33 34 35 36 37 38 39 40 41 42 43 44 45 46 47 48 49 50
000
ASUS44 KCRP 260110
HRRCRP

SOUTH TEXAS REGIONAL WEATHER ROUNDUP
NATIONAL WEATHER SERVICE CORPUS CHRISTI TX
800 PM CDT THU MAY 25 2017


TXZ229>244-260200-
...CORPUS CHRISTI AREA OBSERVATIONS...

CITY           SKY/WX    TMP DP  RH WIND       PRES   REMARKS
CORPUS CHRISTI PTCLDY    80  74  81 SE21G30   29.72S
NAS CORPUS CHR PTCLDY    81  75  82 SE24G33   29.73R
ROCKPORT       PTCLDY    80  72  76 SE16G26   29.73S
KINGSVILLE NAS PTCLDY    82  76  81 SE18G32   29.71R
ALICE          CLEAR     82  73  74 SE15G25   29.70R
ORANGE GROVE   CLEAR     82  75  79 SE20G29   29.72R
FALFURRIAS     CLEAR     87  74  64 SE12G18   29.69R HX  95
$$

...VICTORIA AREA OBSERVATIONS...

CITY           SKY/WX    TMP DP  RH WIND       PRES   REMARKS
VICTORIA       CLEAR     80  70  71 SE16      29.74S
BEEVILLE       FAIR      81  74  78 SE16      29.72R
PLEASANTON     CLEAR     87  69  55 SE10G17   29.69S HX  91
SAN ANTONIO    PTCLDY    86  68  54 SE16      29.71R
$$

...LAREDO AREA OBSERVATIONS...

CITY           SKY/WX    TMP DP  RH WIND       PRES   REMARKS
LAREDO         CLEAR     95  71  45 SE17      29.64S HX 102
COTULLA        PTCLDY    96  64  34 SE16      29.64R HX  98
DEL RIO        CLEAR     93  64  38 SE8       29.61S HX  94
MCALLEN        MOCLDY    86  74  67 SE21G31   29.72R HX  94
HEBBRONVILLE   CLEAR     89  69  51 S16G23    29.70R HX  94
$$

...OTHER TEXAS OBSERVATIONS...

CITY           SKY/WX    TMP DP  RH WIND       PRES   REMARKS
BROWNSVILLE    PTCLDY    83  74  74 SE21      29.75R
HOUSTON        PTCLDY    82  58  43 S16G22    29.76F
COL. STATION   CLEAR     82  58  43 S16       29.71R
AUSTIN         PTCLDY    86  68  54 S13       29.69R
WACO           CLOUDY    85  63  47 S15       29.64S
FORT WORTH     CLOUDY    88  60  38 S21G29    29.58S
WICHITA FALLS  CLOUDY    88  63  43 SE13      29.48S
LUBBOCK        MOCLDY    96  21   6 W25G35    29.60R
EL PASO        PTSUNNY   91  21   8 W24G36    29.77S
$$

...MARINE OBSERVATIONS...

STATION/POSITION TIME  SKY/WX   TEMP    WIND        PRES    VSBY  WAVE   SWELL
                                AIR SEA DIR/SP/G                  HT/PER HT/PER
                 (UTC)          (F)     (DEG/KT/KT) (MB)    (MI)  (FT/S) (FT/S)
PORT ARANSAS     0000            79 80  140/ 21/ 24 1006.8F
BUOY 90 E PORT A 0050            79 78  140/ 16/ 19 1008.6R         4/ 6
BUOY 45 SE BAFFI 0050            79     160/ 19/ 23 1006.6R         5/ 6
BUOY 200 E PT IS 0050            79 80  150/ 14/ 16 1010.0S         3/ 4   2/27
BUOY 15 E GALVES 0050            78 79  180/ 16/ 19 1009.4R         5/ 6
$$




USA.gov is the U.S. government's official web portal to all federal, state and local government web resources and services.